This is the latest recevied weather packets stored in our database for station/object DC4THF-13. If no packets are shown the sender has not sent any weather packets the latest 10 day(s).
| Time | Temp. | Humidity | Pressure | Rain* | Wind** | Luminosity | Snow |
|---|---|---|---|---|---|---|---|
| 1787764966 | 21.11° C | 51% | 1013.9 hPa | 0 mm | - | - | - |
| 1787764363 | 21.11° C | 51% | 1013.7 hPa | 0 mm | - | - | - |
| 1787763759 | 21.67° C | 50% | 1013.6 hPa | 0 mm | - | - | - |
| 1787763156 | 21.67° C | 50% | 1013.6 hPa | 0 mm | - | - | - |
| 1787762552 | 22.78° C | 44% | 1013.5 hPa | 0 mm | - | - | - |
| 1787761949 | 23.33° C | 42% | 1013.5 hPa | 0 mm | - | - | - |
| 1787761346 | 23.89° C | 41% | 1013.6 hPa | 0 mm | - | - | - |
| 1787760743 | 23.89° C | 41% | 1013.7 hPa | 0 mm | - | - | - |
| 1787760140 | 23.89° C | 42% | 1013.7 hPa | 0 mm | - | - | - |
| 1787759537 | 23.89° C | 42% | 1013.8 hPa | 0 mm | - | - | - |
| 1787758934 | 23.89° C | 41% | 1013.8 hPa | 0 mm | - | - | - |
| 1787758391 | 23.89° C | 41% | 1013.9 hPa | 0 mm | - | - | - |
| 1787757788 | 24.44° C | 40% | 1013.8 hPa | 0 mm | - | - | - |
| 1787757185 | 25° C | 40% | 1013.9 hPa | 0 mm | - | - | - |
| 1787756582 | 25.56° C | 40% | 1014 hPa | 0 mm | - | - | - |
| 1787755979 | 25° C | 40% | 1014.1 hPa | 0 mm | - | - | - |
| 1787755376 | 25° C | 41% | 1014.2 hPa | 0 mm | - | - | - |
| 1787754774 | 24.44° C | 41% | 1014.4 hPa | 0 mm | - | - | - |
| 1787754171 | 23.89° C | 42% | 1014.5 hPa | 0 mm | - | - | - |
| 1787753567 | 23.33° C | 42% | 1014.3 hPa | 0 mm | - | - | - |
| 1787752965 | 22.78° C | 42% | 1014.5 hPa | 0 mm | - | - | - |
| 1787752362 | 22.78° C | 42% | 1014.4 hPa | 0 mm | - | - | - |
| 1787751759 | 22.78° C | 42% | 1014.5 hPa | 0 mm | - | - | - |
| 1787751156 | 22.78° C | 42% | 1014.5 hPa | 0 mm | - | - | - |
| 1787750553 | 22.78° C | 42% | 1014.5 hPa | 0 mm | - | - | - |
* Rain latest hour (hover to see other rain measurements)
** Current wind speed in m/s (hover to see current wind gust speed)